Ketchikan, AK

7:35 AM AKST on November 15, 2018 (GMT -0900)
Ketchikan International

Weather History for PAKT - October, 2017

Change the Weather History Date:

Tuesday, October 3, 2017

  Actual Average Record
Temperature  
Mean Temperature 49 °F -  
Max Temperature 57 °F 54 °F 64 °F (1967)
Min Temperature 41 °F 42 °F 30 °F (2006)
Degree Days  
Heating Degree Days 16    
Moisture  
Dew Point 42 °F    
Average Humidity 77    
Maximum Humidity 96    
Minimum Humidity 49    
Precipitation  
Precipitation 0.00 in - - ()
Sea Level Pressure  
Sea Level Pressure 30.33 in    
Wind  
Wind Speed 5 mph (SE)    
Max Wind Speed 9 mph    
Max Gust Speed -    
Visibility 10 miles    
Events      
Averages and records for this station are not official NWS values.
T = Trace of Precipitation, MM = Missing Value Source: NWS Daily Summary

Daily Weather History Graph

Daily Weather History Graph

Search for Another Location

Airport or City:

Astronomy

Oct. 03, 2017 Rise Set
Actual Time 6:54 AM AKDT 6:16 PM AKDT
Civil Twilight 6:17 AM AKDT 6:52 PM AKDT
Nautical Twilight 5:35 AM AKDT 7:34 PM AKDT
Astronomical Twilight 4:51 AM AKDT 8:18 PM AKDT
Moon 5:58 PM AKDT (10/3) 4:00 AM AKDT (10/3)
Length of Visible Light 12h 34m
Length of Day
11h 21m
Waxing Gibbous, 95% of the Moon is Illuminated
Oct 3
Waxing Gibbous
Oct 5
Full
Oct 12
Last Quarter
Oct 19
New
Oct 27
First Quarter

Hourly Weather History & Observations

Time (AKDT) Temp. Windchill Dew Point Humidity Pressure Visibility Wind Dir Wind Speed Gust Speed Precip Events Conditions
12:53 AM 46.0 °F 43.9 °F 42.1 °F 86% 30.37 in 10.0 mi South 4.6 mph - N/A   Clear
1:53 AM 44.1 °F - 39.9 °F 85% 30.37 in 10.0 mi Calm Calm - N/A   Partly Cloudy
2:53 AM 45.0 °F - 42.1 °F 90% 30.37 in 10.0 mi Calm Calm - N/A   Overcast
3:53 AM 46.9 °F - 43.0 °F 86% 30.35 in 10.0 mi SE 6.9 mph - N/A   Overcast
4:53 AM 46.9 °F - 44.1 °F 90% 30.35 in 10.0 mi SE 6.9 mph - N/A   Mostly Cloudy
5:53 AM 48.0 °F - 44.1 °F 86% 30.35 in 10.0 mi SSE 3.5 mph - N/A   Overcast
6:10 AM 48.0 °F - 44.1 °F 86% 30.34 in 10.0 mi South 4.6 mph - N/A   Overcast
6:53 AM 48.2 °F - 44.6 °F 87% 30.34 in 10.0 mi SE 6.9 mph - N/A   Overcast
7:53 AM 48.2 °F - 44.6 °F 87% 30.34 in 10.0 mi SE 5.8 mph - N/A   Overcast
8:53 AM 50.0 °F - 44.6 °F 82% 30.34 in 10.0 mi SE 6.9 mph - N/A   Overcast
9:53 AM 52.0 °F - 45.0 °F 77% 30.34 in 10.0 mi ESE 6.9 mph - N/A   Overcast
10:53 AM 55.4 °F - 42.8 °F 63% 30.33 in 10.0 mi SE 6.9 mph - N/A   Overcast
11:53 AM 55.0 °F - 42.1 °F 62% 30.34 in 10.0 mi ESE 6.9 mph - N/A   Mostly Cloudy
12:53 PM 55.4 °F - 41.0 °F 58% 30.34 in 10.0 mi SE 9.2 mph - N/A   Overcast
1:53 PM 55.4 °F - 42.8 °F 63% 30.33 in 10.0 mi ESE 9.2 mph - N/A   Overcast
2:53 PM 57.0 °F - 41.0 °F 55% 30.33 in 10.0 mi ESE 6.9 mph - N/A   Overcast
3:53 PM 57.9 °F - 39.0 °F 49% 30.32 in 10.0 mi SE 6.9 mph - N/A   Mostly Cloudy
4:53 PM 55.9 °F - 42.1 °F 60% 30.31 in 10.0 mi ESE 6.9 mph - N/A   Overcast
5:53 PM 54.0 °F - 43.0 °F 66% 30.30 in 10.0 mi South 4.6 mph - N/A   Clear
6:53 PM 50.0 °F - 43.0 °F 77% 30.30 in 10.0 mi SE 4.6 mph - N/A   Clear
7:53 PM 46.0 °F - 39.9 °F 79% 30.29 in 10.0 mi Calm Calm - N/A   Clear
8:53 PM 44.1 °F - 39.0 °F 82% 30.28 in 10.0 mi Calm Calm - N/A   Clear
9:53 PM 43.0 °F - 39.9 °F 89% 30.28 in 10.0 mi Calm Calm - N/A   Clear
10:53 PM 41.0 °F - 39.9 °F 96% 30.27 in 10.0 mi Calm Calm - N/A   Clear
11:53 PM 46.0 °F 43.9 °F 39.9 °F 79% 30.27 in 10.0 mi SSE 4.6 mph - N/A   Clear